Regional Weather Roundup
Issued by NWS Goodland, KS

Home | Current Version | Previous Version | Graphics & Text | Print | Product List | Glossary On
Versions: 1 2 3 4 5 6 7 8 9 10 11 12 13 14 15 16 17 18 19 20 21 22 23 24 25 26 27 28 29 30 31 32 33 34 35 36 37 38 39 40 41 42 43 44 45 46 47 48 49 50
000
ASUS43 KGLD 180859
RWRGLD

GOODLAND FORECAST AREA HOURLY WEATHER ROUNDUP
NATIONAL WEATHER SERVICE GOODLAND KS
300 AM MDT SAT APR 18 2015

...OFFICIAL OBSERVATIONS...

CITY           SKY/WX    TMP DP  RH WIND       PRES   REMARKS
GOODLAND KS    PTCLDY    41  40  96 N6        29.93S
HILL CITY KS   MOCLDY    50  48  93 N7        29.90F
IMPERIAL NEB   CLOUDY    49  45  86 NW7       29.93F
MCCOOK NEB     CLOUDY    51  48  89 N10       29.91F
AKRON CO       MOCLDY    38  38 100 N13       29.95F
BURLINGTON CO  CLOUDY    43  41  93 N8        29.94S
LIMON CO       CLEAR     34  32  92 NW8       29.96F
$$

...UNOFFICIAL OBSERVATIONS...

CITY           SKY/WX    TMP DP  RH WIND       PRES   REMARKS
COLBY KS       CLEAR     43  43 100 CALM      29.93S
GOVE KS          N/A     46  32  58 MISG        N/A
LENORA KS        N/A     49  32  52 MISG        N/A
NORTON KS      PTCLDY    52  48  87 NW7       29.88F
SHARON SPRINGS   N/A     41  37  87 MISG        N/A
TRIBUNE KS     CLEAR     41  41 100 W6        29.93F
KIT CARSON CO    N/A     41  38  89 MISG        N/A
$$


USA.gov is the U.S. government's official web portal to all federal, state and local government web resources and services.